Location: Gazon
(48.1318°N, 1.2708°W)
Time: 02:38:54
(UTC+00:00)

Cosmos 1844 Rocket - Pass Details

Date: 18 September 2020
Orbit: 823 x 846 km, 71.0° (Epoch: 29 October)

Event Time Altitude Azimuth Distance (km) Brightness Sun altitude
Rises 21:21:43 0° 231° (SW) 3,350 5.9 -29.9°
Reaches altitude 10° 21:24:17 10° 239° (WSW) 2,423 5.2 -30.2°
Maximum altitude 21:29:28 39° 308° (NW) 1,225 3.9 -30.8°
Drops below altitude 10° 21:34:42 10° 17° (NNE) 2,446 5.4 -31.4°
Sets 21:37:19 0° 25° (NNE) 3,387 6.1 -31.7°
